Lapse_Rate
6.4 6.4 6.2 6.3 6.8 7.0 7.1 7.4 7.5 7.5 8.2 8.2 7.8 7.7 7.8 7.9 8.0 8.1 8.4 8.1 8.0 7.9 7.9 7.8 8.0 7.8 7.3 7.5 7.4 7.6 7.8 8.2 8.8 9.4 9.4 9.4 9.4 9.2 9.2 8.6 8.4 8.5 8.1 7.8 7.9
6.7 6.5 6.2 6.1 6.3 6.7 7.0 7.3 7.6 7.7 7.6 8.0 8.2 7.9 7.8 7.9 8.1 8.3 8.4 8.3 8.3 8.1 8.2 8.2 8.3 7.9 7.1 7.0 7.4 7.7 8.0 8.3 9.0 9.3 9.4 9.1 8.9 8.8 8.8 9.2 9.0 8.9 7.9 8.1 8.0
6.5 6.5 6.4 6.3 6.3 6.3 6.7 7.4 7.6 7.7 7.9 7.9 8.2 8.2 8.1 8.1 8.1 8.3 8.4 8.5 8.6 8.6 8.3 8.0 7.8 7.7 7.4 7.5 7.6 8.1 8.0 8.4 8.6 9.0 9.0 8.8 8.8 8.8 9.3 9.1 9.1 8.7 8.5 8.0 8.1
6.3 6.3 6.3 6.3 6.4 6.2 6.6 7.3 7.7 7.8 8.0 8.1 8.0 8.0 7.9 8.2 8.0 7.8 8.4 8.8 9.0 9.0 8.6 8.4 7.9 7.6 7.9 7.8 8.0 8.5 8.6 8.8 8.8 8.7 8.5 8.5 8.6 8.8 9.2 9.2 9.1 8.7 8.4 8.3 8.1
6.5 6.4 6.3 6.1 6.1 6.3 6.3 6.7 7.2 7.7 7.9 8.1 8.0 8.2 8.1 7.9 8.1 8.4 8.4 8.5 8.6 8.6 8.7 8.6 8.0 7.9 8.1 8.3 8.4 8.6 8.9 9.0 9.0 8.5 8.3 8.5 8.6 9.1 8.8 8.8 9.0 8.5 8.5 8.2 8.1
6.3 6.6 6.4 6.4 6.3 6.1 6.1 6.3 6.6 7.0 7.5 7.8 7.7 7.7 7.9 7.3 8.5 8.5 8.3 8.3 8.4 8.1 8.4 8.3 8.1 8.0 8.1 8.0 8.6 8.7 9.0 9.1 8.7 8.3 8.7 8.9 8.9 8.6 8.9 8.7 8.6 8.3 8.6 8.1 7.8
6.2 6.1 6.2 6.1 6.2 6.2 6.2 6.4 6.5 6.4 6.8 7.0 7.3 7.2 6.9 7.2 8.2 8.0 8.2 7.4 8.3 8.4 8.6 8.1 7.7 7.7 7.9 7.9 8.4 8.6 8.7 8.8 8.9 8.9 8.4 9.0 8.6 8.5 8.7 9.1 8.7 8.3 8.5 8.3 7.9
5.8 6.0 6.3 6.2 6.0 6.0 6.3 6.5 6.6 6.6 6.7 6.7 7.0 7.0 6.9 7.7 8.1 7.9 7.7 7.4 7.4 7.1 6.6 6.9 7.0 7.1 7.4 7.8 7.9 8.2 8.5 8.6 8.4 9.0 9.0 9.4 8.3 8.9 8.8 9.1 8.8 8.7 8.5 8.3 7.9
5.4 5.4 5.5 5.7 6.1 6.1 6.1 6.1 6.2 6.4 6.5 6.5 6.4 6.3 6.1 7.5 7.8 8.3 7.7 7.6 6.7 6.5 6.4 6.7 6.8 6.9 7.1 7.0 7.3 7.8 7.9 8.4 8.5 9.0 9.2 9.6 9.0 9.2 8.9 9.1 9.0 9.0 8.6 8.5 8.3
5.0 5.1 5.2 5.4 5.5 5.8 5.9 5.9 5.8 5.9 5.8 5.8 5.8 5.1 6.4 7.4 7.6 7.8 7.6 7.2 7.1 6.5 6.4 6.3 6.8 6.8 6.9 6.8 6.7 7.7 8.4 8.4 8.7 9.2 9.6 9.5 9.3 9.2 9.2 9.2 8.9 8.7 9.0 8.9 8.2
3.7 4.2 4.6 4.8 5.2 5.5 5.5 5.7 5.7 5.6 5.3 5.8 6.4 6.2 6.8 6.0 6.9 7.1 7.2 7.1 6.2 6.3 6.1 6.4 6.6 6.3 6.6 7.0 7.8 8.3 8.9 9.6 9.6 9.6 8.7 8.9 9.2 9.3 9.4 9.1 8.8 9.3 9.5 9.1 8.5
3.3 3.5 3.5 3.7 4.2 4.9 5.2 5.0 5.3 4.8 4.6 5.6 6.0 5.3 6.8 6.5 5.9 6.6 6.3 6.2 6.0 5.8 6.4 6.7 5.9 6.6 7.0 7.6 7.8 8.3 8.6 9.1 9.6 9.6 9.6 9.6 9.6 9.4 9.3 8.7 8.8 9.0 8.9 8.9 8.5
3.0 3.0 3.2 3.4 3.5 3.9 4.8 5.3 5.3 4.4 3.4 5.4 5.8 6.0 6.3 6.9 6.3 6.0 6.4 6.0 6.1 6.0 6.5 6.5 6.9 7.2 7.6 8.0 8.1 8.3 8.4 9.0 9.6 9.6 9.6 9.6 9.4 9.4 9.4 9.5 9.6 9.7 9.0 8.6 8.2
3.3 3.1 3.0 3.0 3.2 3.5 3.7 4.3 4.6 3.4 3.5 4.7 5.7 6.2 6.3 5.9 6.2 6.1 6.3 6.3 6.2 6.1 6.6 6.8 7.4 7.7 7.9 8.2 8.4 8.4 9.0 9.5 9.6 9.6 9.6 9.6 9.4 9.5 9.3 9.5 9.6 9.6 9.0 8.5 8.0
4.6 4.2 3.8 3.5 3.3 3.2 2.9 2.9 3.0 3.2 5.5 6.7 7.1 6.8 7.3 7.1 6.9 7.2 7.0 6.3 6.4 6.5 6.8 6.4 7.4 7.7 8.1 8.2 8.5 8.7 9.6 9.6 9.6 9.6 9.6 8.6 8.9 8.8 9.5 9.6 9.7 9.5 9.2 8.7 8.1
6.4 6.1 5.3 4.9 4.5 4.0 3.3 2.9 3.4 4.4 5.4 6.4 8.3 6.6 6.0 5.8 6.3 7.5 7.4 6.6 6.9 7.2 7.1 7.3 7.9 8.2 8.2 9.3 9.2 9.5 9.7 9.6 9.6 9.6 9.2 8.8 8.9 8.6 9.5 9.8 9.5 9.4 9.3 9.0 8.3
6.8 6.4 6.3 6.4 6.2 4.8 3.7 4.0 4.2 4.8 5.4 6.9 8.5 7.3 6.5 6.5 6.3 6.9 6.7 6.5 6.7 6.8 6.7 7.5 7.7 8.0 8.5 9.6 9.7 9.5 9.7 9.6 9.3 9.1 8.2 8.7 8.9 9.2 9.6 9.3 9.4 9.1 9.6 8.6 8.6
7.4 7.4 7.1 7.3 7.2 5.9 5.6 5.6 4.5 4.0 4.6 7.9 8.9 8.9 7.5 7.7 6.8 7.1 7.4 6.8 7.0 7.0 7.6 7.5 8.0 7.8 8.3 8.4 9.3 9.7 9.1 9.3 8.8 8.7 9.1 9.5 9.5 9.6 9.2 9.0 9.1 8.8 8.9 8.2 8.3
7.2 6.9 6.4 6.7 7.1 6.7 6.6 6.3 4.3 4.2 5.7 6.8 8.0 8.6 9.3 8.6 8.3 7.5 7.5 6.9 7.0 7.1 7.4 7.9 7.9 8.7 8.6 8.9 9.5 9.3 8.8 8.7 9.1 9.6 9.6 9.6 9.4 9.5 9.4 8.9 8.7 8.8 8.6 8.2 8.2
6.9 6.4 6.4 6.0 6.1 6.6 7.0 6.5 5.0 4.6 5.6 6.8 6.8 7.8 8.0 9.1 9.4 9.0 7.6 7.4 7.3 7.2 7.6 8.2 8.7 8.9 8.7 9.6 9.6 9.2 9.2 8.8 8.6 8.6 8.7 9.5 9.7 9.7 9.1 9.3 9.0 8.7 8.5 8.2 8.4
6.7 6.9 6.5 5.9 5.8 6.6 6.5 6.2 7.2 6.7 6.6 6.5 6.6 6.7 6.6 6.9 8.3 9.6 8.4 8.0 7.8 7.7 7.6 8.1 9.1 9.2 9.7 9.6 8.7 8.5 9.1 9.2 8.9 9.3 9.5 9.3 9.6 9.6 9.0 9.1 8.5 8.5 7.9 8.4 8.5
7.1 7.2 6.9 6.6 6.6 6.7 6.6 6.8 7.0 6.4 6.3 5.9 6.5 5.6 5.6 6.7 6.8 7.6 9.6 8.3 8.4 8.0 7.8 7.8 8.6 9.0 9.6 9.5 9.0 8.6 8.5 9.3 8.7 8.8 9.1 9.6 9.6 9.4 9.3 8.8 8.7 8.3 8.1 8.2 8.3
7.3 7.1 7.3 7.4 6.8 7.4 7.4 6.7 6.7 7.0 6.8 6.2 5.9 5.5 5.5 6.0 5.8 7.5 8.4 9.3 8.9 8.6 8.1 7.8 8.5 8.9 9.4 9.7 9.5 9.1 8.6 9.4 9.5 9.2 9.4 9.1 9.2 9.1 9.1 8.9 8.6 8.2 7.6 8.1 8.2
7.1 7.3 7.0 7.1 7.2 7.3 7.1 7.4 7.1 6.9 6.9 6.6 5.6 5.3 5.1 5.0 5.7 6.5 7.5 8.9 9.7 9.6 8.3 8.5 8.4 8.3 8.9 9.5 9.2 8.5 8.6 8.7 8.7 8.7 8.7 8.8 9.5 9.4 9.1 8.8 8.7 8.4 7.7 8.3 8.3
7.2 7.3 7.2 7.1 7.2 7.2 7.1 6.9 7.3 7.0 7.5 7.4 6.5 5.8 5.3 5.4 5.6 6.5 7.2 7.6 8.7 9.6 9.6 9.3 8.3 8.5 8.5 9.2 9.6 9.2 8.6 8.5 8.6 8.4 8.6 8.6 8.9 9.6 9.1 8.9 8.9 8.9 8.2 7.9 7.9
7.2 7.2 7.2 7.4 7.5 7.2 7.4 7.4 7.6 7.8 7.8 7.4 6.6 6.7 5.7 5.1 5.7 5.1 5.1 5.5 7.1 9.1 9.7 9.6 8.7 8.6 8.9 8.7 9.5 9.6 9.1 8.6 8.6 8.8 8.4 8.5 8.6 9.0 9.5 8.8 9.3 9.0 8.5 8.0 7.9
7.2 7.4 7.3 7.9 7.1 7.3 7.5 7.4 7.6 7.3 7.9 7.9 7.2 6.5 5.4 4.8 5.1 5.0 4.7 4.7 5.1 6.6 8.3 9.6 8.6 8.7 8.7 8.8 9.3 9.7 9.6 9.0 8.3 8.7 8.8 8.2 8.2 8.8 9.5 9.6 9.5 9.0 8.7 8.3 8.1
Wind_Speed
13 14 14 15 15 15 16 17 17 17 17 18 18 19 20 19 24 7 14 12 15 22 7 12 16 19 19 20 20 17 13 16 21 21 14 14 14 10 8 7 12 5 5 6 10
14 15 16 16 15 16 16 17 18 19 19 19 18 19 19 20 12 19 13 28 15 23 12 20 20 20 17 20 17 17 14 23 22 20 14 17 14 17 16 12 11 12 10 10 11
14 15 16 18 18 17 16 17 18 19 19 20 20 21 21 19 12 10 8 20 25 25 21 21 20 21 23 20 22 21 21 22 24 20 16 19 18 17 15 10 8 7 0 15 12
16 15 16 17 19 19 18 18 19 19 20 22 22 21 26 6 7 6 6 5 17 21 19 23 24 25 25 24 23 24 26 24 25 18 19 19 22 18 11 10 10 0 1 13 15
18 19 18 16 17 17 18 20 20 20 20 20 19 17 10 11 15 15 11 8 11 16 23 24 27 26 27 25 24 27 26 25 19 14 22 24 22 18 12 10 6 4 7 7 6
19 20 20 20 18 17 19 20 20 20 20 20 17 18 8 20 16 22 18 11 12 18 22 23 24 24 26 25 27 24 25 23 18 25 23 22 18 15 20 10 4 7 8 11 11
17 19 21 20 20 21 21 21 22 24 25 23 17 9 14 24 13 19 19 22 18 20 20 21 23 26 23 28 26 24 26 23 23 18 22 20 19 16 19 12 16 12 13 11 7
19 17 19 20 21 21 23 24 25 26 27 24 16 9 12 12 29 30 29 24 19 22 19 15 19 24 26 23 24 24 26 22 23 22 25 22 19 16 16 15 16 14 11 13 13
21 21 20 20 21 21 24 26 30 31 27 19 7 10 16 12 22 30 25 25 19 18 14 17 21 20 20 21 21 21 18 25 24 23 24 21 18 16 17 16 14 11 11 10 9
21 21 20 21 21 21 22 27 34 21 12 10 12 11 18 21 21 24 26 25 21 18 19 20 17 19 18 17 21 20 23 22 23 23 22 14 17 15 18 19 8 18 14 11 9
20 21 21 20 19 19 16 12 6 7 12 15 15 19 12 15 21 24 19 24 23 21 21 20 15 23 25 26 26 25 23 24 23 17 8 16 22 16 12 14 18 15 9 7 10
20 20 20 21 21 20 13 10 18 14 12 27 32 28 27 21 12 15 15 22 26 27 22 21 26 27 27 24 28 27 26 23 20 19 15 15 14 13 14 17 19 17 13 9 13
18 17 20 21 21 15 16 24 21 25 11 23 29 34 31 27 26 21 24 23 24 27 27 27 27 27 28 25 26 26 25 21 23 17 16 15 14 13 20 19 15 12 5 4 14
19 16 16 17 12 9 16 18 19 10 7 15 24 26 33 29 35 29 24 24 22 28 30 31 26 28 29 28 26 25 25 25 18 15 13 14 13 13 15 17 12 5 8 10 15
21 18 15 10 14 11 15 17 8 4 7 8 33 11 21 33 10 33 31 28 27 26 22 32 29 28 28 28 27 23 23 20 14 15 15 15 12 14 15 18 7 1 6 13 16
21 17 14 11 13 15 20 15 5 7 14 9 11 26 25 31 35 9 35 31 26 25 28 29 24 30 31 26 26 25 22 14 12 12 12 15 15 14 16 4 4 3 1 13 15
21 18 14 14 13 13 10 8 7 14 10 12 21 25 25 27 32 32 31 31 26 26 28 26 32 30 29 29 23 23 14 11 11 11 12 18 18 15 8 9 2 3 10 13 14
19 15 13 14 19 12 4 7 16 20 35 10 19 23 26 24 29 34 26 27 30 31 14 23 22 33 27 30 26 23 17 13 15 11 16 20 17 5 5 5 2 2 7 13 13
13 9 9 12 19 6 4 12 22 28 17 28 29 29 24 25 22 30 34 30 32 32 25 22 29 23 32 24 23 21 22 18 18 17 12 11 11 10 11 8 9 9 10 12 11
5 4 10 16 20 3 6 17 23 29 36 34 29 20 20 19 27 31 31 30 31 33 25 24 18 28 29 25 23 23 19 16 12 16 15 12 15 5 11 6 10 10 7 12 12
4 2 8 19 5 4 7 19 26 29 32 29 28 27 26 25 25 29 32 30 32 32 31 26 16 20 24 27 22 18 20 18 14 14 12 10 10 9 10 12 11 8 11 11 13
2 3 4 12 6 3 9 19 20 27 30 28 24 25 26 25 23 17 27 32 28 30 34 32 11 16 26 26 26 23 23 18 11 16 11 11 5 10 9 9 11 12 13 13 15
3 5 2 4 5 8 15 21 25 26 26 26 22 23 25 25 12 15 22 28 34 32 30 26 20 13 19 22 24 23 23 20 14 9 14 12 11 10 11 11 7 14 16 14 14
4 3 3 5 3 10 16 21 20 19 27 22 20 24 22 22 20 17 22 16 28 30 33 22 19 22 16 18 22 26 24 23 20 13 14 15 16 15 12 9 10 13 17 16 15
3 4 5 4 7 8 12 20 22 19 24 16 22 20 20 21 23 18 16 19 25 23 25 22 27 21 24 24 27 26 26 26 24 19 18 17 17 11 13 10 11 13 16 17 16
3 4 5 9 11 13 13 12 20 20 17 18 16 19 18 21 20 19 22 20 13 19 17 20 23 22 24 27 25 28 27 25 25 23 22 21 18 13 11 19 14 16 14 15 17
3 4 5 7 9 9 9 9 7 14 16 14 16 17 16 19 19 20 21 21 25 22 23 16 20 22 21 23 25 24 27 26 20 21 22 20 15 14 12 10 8 16 14 14 16
Wind_Direction
341 340 340 338 336 337 340 341 335 337 338 330 334 334 335 324 305 244 244 237 220 181 224 197 212 225 222 230 236 242 254 260 270 285 308 311 315 326 294 197 262 194 180 110 127
336 334 336 331 332 334 336 335 328 333 335 329 330 332 331 326 297 276 251 239 197 165 202 213 208 221 230 230 240 235 246 257 270 287 313 316 309 297 304 245 226 190 181 150 160
319 323 330 328 327 328 330 329 327 328 327 325 330 333 327 321 287 268 359 215 181 172 213 228 223 219 230 240 233 237 247 256 272 294 306 299 298 284 281 296 276 16 4 160 186
305 307 314 319 321 325 327 324 323 321 323 323 327 334 319 271 259 67 57 128 162 187 218 231 233 232 227 235 242 249 250 252 258 279 301 277 278 274 288 288 280 84 273 169 189
295 301 301 300 307 314 315 314 314 317 315 315 323 334 320 236 241 261 127 138 173 203 219 225 233 223 238 239 242 253 257 259 273 288 265 264 260 281 275 284 298 288 225 224 219
313 299 294 293 296 300 302 306 307 305 304 309 320 320 246 257 255 264 252 181 186 205 221 224 237 240 242 247 253 254 259 267 267 255 263 269 265 261 265 252 233 262 259 241 222
319 318 304 297 298 299 300 303 304 304 307 308 309 293 260 246 273 278 272 214 216 198 218 222 232 248 251 249 256 263 265 269 259 258 258 271 263 248 275 230 264 244 234 234 267
316 316 320 316 303 302 302 302 300 297 297 295 290 271 256 259 243 256 266 273 230 238 239 246 231 243 256 270 261 256 260 258 260 254 252 236 251 262 250 245 260 242 246 239 219
320 315 313 312 308 303 300 297 291 287 287 276 257 214 264 248 231 240 241 235 239 220 234 235 236 239 239 247 256 246 251 253 258 249 253 239 236 237 260 282 246 234 244 253 217
311 317 310 308 307 303 304 293 279 284 247 219 248 227 244 244 237 226 224 229 229 235 237 243 227 234 224 224 233 235 240 238 252 260 264 218 243 242 235 247 252 270 244 236 216
309 305 315 311 307 308 310 303 224 203 222 212 198 210 264 216 230 219 211 215 228 231 226 226 223 225 224 223 236 243 248 245 251 255 220 236 238 241 258 275 286 285 272 238 182
301 306 303 308 309 304 292 261 261 328 285 230 251 235 246 274 253 227 207 206 208 221 217 217 222 224 230 226 230 242 251 260 273 284 291 289 269 281 288 270 265 263 264 256 149
289 293 300 305 307 286 250 253 269 285 276 265 238 236 238 236 241 231 212 208 210 211 215 220 223 222 233 224 229 233 242 253 261 275 276 282 272 265 263 269 264 253 223 250 140
293 284 291 305 295 270 266 244 234 259 274 255 217 241 225 223 241 228 220 210 216 214 216 228 225 223 225 230 221 232 232 239 252 273 273 287 294 286 298 276 258 247 206 170 150
296 276 277 267 304 292 345 333 337 202 264 235 214 186 195 198 178 211 216 206 211 210 211 226 220 229 219 221 231 233 238 242 237 247 257 268 270 278 289 280 243 152 231 178 152
297 280 264 261 240 273 284 304 271 225 235 240 226 187 192 200 215 220 197 221 213 221 225 230 229 226 232 229 219 233 237 246 254 262 255 252 257 270 266 16 63 341 258 126 144
294 277 245 260 266 278 322 272 213 227 238 252 185 174 196 195 208 226 189 201 208 209 225 220 227 231 232 228 220 222 219 224 225 237 253 251 246 244 287 302 349 317 134 137 138
294 270 244 246 254 265 288 241 225 230 239 276 215 185 199 212 201 211 187 202 209 207 209 219 220 222 216 229 219 203 207 226 222 226 244 244 233 253 107 97 92 74 74 121 141
300 266 252 235 239 223 218 223 226 245 272 242 289 283 202 216 213 203 220 201 203 206 213 206 227 209 227 209 221 199 213 215 253 267 288 269 235 204 173 170 198 191 133 128 143
285 274 246 229 226 145 215 236 247 249 264 288 293 319 311 237 223 193 203 216 208 205 216 233 214 226 208 212 207 223 194 208 229 244 265 281 278 251 137 193 132 118 133 133 145
274 284 259 219 183 185 222 221 238 257 275 286 280 296 306 301 295 211 210 221 202 205 213 226 245 211 207 205 195 205 229 200 226 222 231 248 266 134 149 113 118 144 134 147 154
115 255 350 165 176 242 243 242 267 273 281 289 291 287 286 301 306 296 220 215 206 208 201 216 225 240 210 201 200 208 216 205 212 219 256 260 283 90 103 128 123 122 140 156 161
273 278 95 29 209 235 252 255 257 266 271 267 279 270 283 306 305 288 265 222 219 193 208 204 225 233 234 206 186 212 217 218 218 214 212 232 248 159 162 143 152 150 142 164 166
298 300 188 205 245 280 272 273 284 296 281 261 268 271 275 276 277 278 290 291 208 218 203 188 223 222 222 206 179 195 214 215 213 219 221 238 250 140 152 165 191 155 150 167 171
251 263 309 286 276 294 319 279 276 285 293 236 260 267 264 275 281 273 338 341 319 250 192 188 212 223 229 234 195 196 205 221 216 212 221 223 241 207 174 188 209 157 158 168 177
288 306 333 291 281 278 257 275 270 274 285 298 290 245 253 265 272 310 322 325 291 338 219 188 210 220 218 230 233 202 202 214 225 214 213 230 235 237 191 191 197 157 164 178 176
263 278 303 288 291 297 264 281 289 306 292 253 265 277 287 282 284 292 303 292 286 288 295 194 197 200 225 216 237 215 200 203 217 226 209 216 222 242 245 215 195 144 159 193 179